OE5HMR-13 Weather Reports


time (UTC)temp
F
wind
direction
speed
knots
gust
knots
rain 1hr
in
rain 24hr
in
rain mn
in
humidity
%
barometer
mb
20260905234737 48 56 0.9 0.9 0.00 0.14 0.00 85 1026.2
20260905233714 48 0.0 0.0 0.00 0.14 0.00 83 1026.2
20260905232711 48 0.0 0.0 0.00 0.14 0.00 81 1026.2
20260905231707 49 0.0 0.0 0.00 0.14 0.00 80 1026.1
20260905230704 49 56 0.0 0.9 0.00 0.14 0.00 80 1026.0
20260905225701 50 57 0.0 0.9 0.00 0.14 0.00 80 1026.0
20260905224719 50 11 0.0 1.7 0.00 0.14 0.00 81 1026.0
20260905223717 51 0.0 0.0 0.00 0.14 0.00 81 1026.0
20260905222714 51 338 1.7 3.5 0.00 0.14 0.00 81 1025.9
20260905221712 51 332 0.9 1.7 0.00 0.14 0.00 81 1025.8
20260905220714 52 356 0.9 1.7 0.00 0.14 0.00 82 1025.6
20260905215714 52 329 1.7 3.5 0.00 0.14 0.14 82 1025.5
20260905214712 52 336 2.6 3.5 0.00 0.14 0.14 83 1025.5
20260905213709 53 334 0.9 1.7 0.00 0.14 0.14 81 1025.4
20260905212706 53 334 0.9 1.7 0.00 0.14 0.14 81 1025.4
20260905211704 54 336 0.9 2.6 0.00 0.14 0.14 81 1025.2
20260905210720 54 321 0.9 1.7 0.00 0.14 0.14 81 1025.2
20260905205757 55 314 0.0 1.7 0.00 0.14 0.14 80 1025.2
20260905204714 55 313 0.0 0.9 0.00 0.14 0.14 80 1025.2
20260905203711 56 333 0.9 2.6 0.00 0.14 0.14 81 1025.2
20260905202708 56 357 0.9 1.7 0.00 0.14 0.14 81 1025.1
20260905201705 57 345 0.9 1.7 0.00 0.14 0.14 80 1025.0
20260905200702 57 326 0.0 1.7 0.00 0.14 0.14 80 1025.0
20260905195700 57 317 0.9 1.7 0.00 0.14 0.14 81 1024.9
20260905194717 58 299 0.9 2.6 0.00 0.14 0.14 81 1024.8
20260905193714 58 281 0.9 2.6 0.00 0.14 0.14 80 1024.7
20260905192710 58 276 1.7 3.5 0.00 0.14 0.14 80 1024.7
20260905191707 58 284 1.7 5.2 0.00 0.14 0.14 80 1024.5
20260905190705 59 264 2.6 7.8 0.00 0.14 0.14 79 1024.4
20260905185701 59 274 1.7 5.2 0.00 0.14 0.14 78 1024.4
20260905184719 59 275 2.6 7.0 0.00 0.14 0.14 77 1024.2
20260905183716 59 274 1.7 5.2 0.00 0.14 0.14 76 1024.2
20260905182713 60 261 2.6 6.1 0.00 0.14 0.14 76 1024.0
20260905181712 60 269 3.5 8.7 0.00 0.14 0.14 75 1023.8
20260905180709 60 276 4.3 8.7 0.00 0.14 0.14 74 1023.6
20260905175715 60 272 4.3 8.7 0.00 0.14 0.14 72 1023.5
20260905174721 60 268 4.3 7.8 0.00 0.14 0.14 71 1023.3
20260905173725 61 275 3.5 9.6 0.00 0.14 0.14 69 1023.2
20260905172738 62 278 3.5 6.1 0.00 0.14 0.14 67 1023.1
20260905171711 63 284 3.5 7.8 0.00 0.14 0.14 65 1023.2
20260905170708 64 280 4.3 7.8 0.00 0.14 0.14 64 1023.1
20260905165703 64 283 4.3 8.7 0.00 0.14 0.14 63 1023.1
20260905164659 65 276 4.3 12.2 0.00 0.14 0.14 62 1023.1
20260905163715 65 289 5.2 14.8 0.00 0.14 0.14 61 1023.0
20260905162712 65 272 6.1 15.6 0.00 0.14 0.14 62 1023.1
20260905161709 65 292 4.3 7.8 0.00 0.14 0.14 62 1023.0
20260905160706 65 312 4.3 12.2 0.00 0.14 0.14 61 1022.8
20260905155704 66 257 7.8 15.6 0.00 0.14 0.14 60 1022.7
20260905154700 65 295 5.2 9.6 0.00 0.14 0.14 61 1022.8
20260905153717 66 286 4.3 16.5 0.00 0.14 0.14 59 1022.6
20260905152734 66 280 7.0 16.5 0.00 0.14 0.14 60 1022.7
20260905151731 64 280 4.3 7.8 0.00 0.14 0.14 62 1022.8
20260905150707 65 275 5.2 11.3 0.00 0.14 0.14 61 1022.6
20260905145703 65 305 4.3 9.6 0.00 0.14 0.14 62 1022.7
20260905144720 66 277 5.2 11.3 0.00 0.14 0.14 59 1022.6
20260905143716 67 288 6.1 13.0 0.00 0.14 0.14 59 1022.5
20260905142713 67 300 7.0 11.3 0.00 0.14 0.14 59 1022.4
20260905141710 66 304 6.1 12.2 0.00 0.14 0.14 61 1022.5
20260905140706 67 280 7.0 13.9 0.00 0.14 0.14 62 1022.5
20260905135700 67 283 7.0 13.0 0.00 0.14 0.14 61 1022.6
20260905134717 66 299 5.2 11.3 0.00 0.14 0.14 63 1022.7
20260905133714 66 296 5.2 12.2 0.00 0.14 0.14 62 1022.7
20260905132711 65 310 5.2 13.0 0.00 0.14 0.14 64 1022.6
20260905131728 65 310 7.0 14.8 0.00 0.14 0.14 66 1022.6
20260905130745 66 297 7.0 13.9 0.00 0.14 0.14 67 1022.6
20260905125701 66 306 5.2 9.6 0.00 0.14 0.14 68 1022.7
20260905124718 66 294 6.1 13.0 0.00 0.14 0.14 67 1022.9
20260905123715 66 294 4.3 9.6 0.00 0.14 0.14 70 1022.9
20260905122712 65 274 5.2 8.7 0.00 0.14 0.14 73 1023.1
20260905121728 64 303 4.3 8.7 0.00 0.14 0.14 77 1023.1
20260905120705 63 275 3.5 7.8 0.00 0.14 0.14 77 1023.2
20260905115701 62 280 2.6 7.8 0.00 0.14 0.14 77 1023.1
20260905114718 63 276 4.3 9.6 0.00 0.14 0.14 75 1023.0
20260905113715 61 282 4.3 11.3 0.00 0.14 0.14 80 1023.0
20260905112711 60 266 5.2 11.3 0.00 0.14 0.14 81 1023.0
20260905111708 60 264 4.3 11.3 0.00 0.14 0.14 80 1023.0
20260905110705 60 267 3.5 9.6 0.00 0.14 0.14 85 1022.9
20260905105702 60 270 4.3 8.7 0.00 0.14 0.14 82 1022.9
20260905104658 59 295 2.6 7.0 0.00 0.14 0.14 87 1023.0
20260905103715 58 272 4.3 12.2 0.00 0.14 0.14 87 1023.1
20260905102713 57 283 3.5 7.8 0.00 0.14 0.14 88 1023.2
20260905101709 57 259 5.2 8.7 0.00 0.14 0.14 87 1023.1
20260905100706 57 275 2.6 6.1 0.00 0.14 0.14 88 1023.2
20260905095659 57 269 3.5 7.8 0.00 0.14 0.14 87 1023.1
20260905094716 57 270 4.3 8.7 0.00 0.14 0.14 89 1023.0
20260905093753 57 272 4.3 8.7 0.00 0.14 0.14 88 1023.0
20260905092708 57 263 4.3 11.3 0.00 0.14 0.14 91 1022.9
20260905091705 56 253 4.3 7.8 0.00 0.14 0.14 92 1023.1
20260905090702 55 268 5.2 9.6 0.00 0.14 0.14 92 1023.1
20260905085701 55 251 5.2 9.6 0.01 0.14 0.14 91 1023.0
20260905084719 55 253 5.2 9.6 0.01 0.14 0.14 91 1022.9
20260905083716 55 242 5.2 9.6 0.01 0.14 0.14 89 1022.8
20260905082713 55 249 4.3 9.6 0.01 0.14 0.14 89 1023.0
20260905081709 55 242 4.3 7.8 0.02 0.13 0.13 88 1022.8
20260905080806 56 248 4.3 7.0 0.02 0.13 0.13 88 1022.7
20260905075703 56 243 4.3 7.0 0.02 0.13 0.13 88 1022.8
20260905074700 55 229 3.5 6.1 0.02 0.13 0.13 88 1022.5
20260905073720 55 203 3.5 7.8 0.02 0.13 0.13 89 1022.3
20260905072714 55 220 2.6 7.8 0.03 0.13 0.13 87 1022.2
20260905071711 55 238 3.5 6.1 0.02 0.12 0.12 86 1022.2
20260905070708 55 252 3.5 7.0 0.03 0.11 0.11 85 1022.3
20260905065704 55 238 3.5 6.1 0.02 0.11 0.11 84 1022.1
20260905064700 55 319 0.9 0.9 0.02 0.11 0.11 84 1021.3
20260905063716 55 323 0.0 1.7 0.02 0.10 0.10 84 1021.5
20260905062714 55 317 1.7 7.0 0.06 0.10 0.10 85 1021.9
20260905061711 55 329 5.2 8.7 0.07 0.10 0.10 87 1021.7
20260905060708 55 328 6.1 13.0 0.06 0.09 0.09 87 1021.0
20260905055708 55 338 5.2 12.2 0.06 0.09 0.09 87 1021.1
20260905054704 55 356 3.5 6.1 0.06 0.09 0.09 85 1021.1
20260905053702 56 350 4.3 9.6 0.06 0.09 0.09 85 1021.0
20260905052715 57 338 8.7 18.2 0.04 0.04 0.04 81 1021.4
20260905051714 57 11 5.2 11.3 0.03 0.03 0.03 79 1020.9
20260905050709 57 14 3.5 8.7 0.03 0.03 0.03 77 1020.5
20260905045705 57 36 3.5 11.3 0.03 0.03 0.03 77 1020.5
20260905044701 58 55 2.6 6.1 0.02 0.02 0.02 76 1020.3
20260905043719 58 43 2.6 6.1 0.02 0.02 0.02 74 1020.5
20260905042715 59 11 3.5 7.8 0.00 0.00 0.00 73 1020.3
20260905041712 59 30 3.5 7.8 0.00 0.00 0.00 72 1020.0
20260905040709 60 50 0.9 3.5 0.00 0.00 0.00 71 1019.4
20260905035745 60 36 0.9 2.6 0.00 0.00 0.00 70 1019.2
20260905034722 60 53 2.6 6.1 0.00 0.00 0.00 68 1019.4
20260905033719 60 61 1.7 7.8 0.00 0.00 0.00 68 1019.2
20260905032735 60 33 0.9 1.7 0.00 0.00 0.00 69 1019.2
20260905031712 61 61 1.7 5.2 0.00 0.00 0.00 69 1018.9
20260905030708 61 54 0.9 2.6 0.00 0.00 0.00 69 1019.0
20260905025704 62 58 4.3 8.7 0.00 0.00 0.00 69 1019.0
20260905024700 63 29 3.5 6.1 0.00 0.00 0.00 68 1018.9
20260905023718 65 34 4.3 11.3 0.00 0.00 0.00 66 1018.8
20260905022714 66 331 8.7 18.2 0.00 0.00 0.00 66 1018.4
20260905021711 66 333 2.6 5.2 0.00 0.00 0.00 63 1018.0
20260905020710 66 334 3.5 7.0 0.00 0.00 0.00 62 1017.8
20260905015720 67 328 3.5 6.1 0.00 0.00 0.00 62 1017.7
20260905014734 67 300 1.7 5.2 0.00 0.00 0.00 62 1017.7
20260905013712 67 309 1.7 6.1 0.00 0.00 0.00 61 1017.8
20260905012708 68 308 1.7 3.5 0.00 0.00 0.00 60 1017.7
20260905011705 68 322 2.6 6.1 0.00 0.00 0.00 60 1017.7
20260905010702 68 309 1.7 5.2 0.00 0.00 0.00 59 1017.8
20260905005719 68 302 2.6 7.0 0.00 0.00 0.00 59 1017.7
20260905004716 68 291 2.6 5.2 0.00 0.00 0.00 59 1017.6
20260905003712 68 301 3.5 8.7 0.00 0.00 0.00 59 1017.5
20260905002709 68 283 3.5 7.0 0.00 0.00 0.00 58 1017.5
20260905001704 68 287 3.5 7.0 0.00 0.00 0.00 59 1017.4
20260905000701 68 280 2.6 7.8 0.00 0.00 0.00 59 1017.4
20260904235658 68 282 2.6 6.1 0.00 0.00 0.00 58 1017.4